Showing default

METHANESAT, 59101

Orbit data source: Space-Track

METHANESAT, 59101 is a payload satellite owned by MethaneSAT (US) in SSO that was launched on Mon, 04 Mar 2024 UTC via an FALCON 9 launch vehicle from the Air Force Western Test Range (AFWTR). Payload-class satellites include a variety of spacecraft equipped with specific instruments for various scientific and technological missions. These include communications satellites like Starlink; space stations such as the ISS; scientific satellites like the Hubble; Earth observation satellites from companies like Planet Labs, Umbra, and HawkEye 360; GPS; miniature CubeSats for education and research; and military/defense satellites.

Loading next visibility...
Identifier
59101, 2024-043D
Orbit
SSO
Last TLE update
11 hours ago
Origin
Manufacturer
Blue Canyon
Mission
Non-operational Amateur Science
Bus & Motor
SATURN X-SAT, NANO-R3
Mass
362 kg wet, 326 kg dry
Launch date (UTC)
2024-03-04 (1 year ago)
Launch vehicle
FALCON 9
Launch site
Air Force Western Test Range (AFWTR)
Object type
Payload
Rocket body
Debris
Shape & HBR
Box + 2 Pan, 6 m
Radar Cross Section
2.251 m², Medium (>0.1 m² and < 1m²)

Expand to show TLE details & history

TLE from 11 hours ago
0 METHANESAT
1 59101U 24043D   25186.31662951  .00001923  00000-0  17897-3 0  9994
2 59101  97.8028 312.2972 0012471  88.9843 271.2806 14.95444453 72764
Epoch: 2025-07-05T07:35Z
TLE epoch observation values (Epoch: 2025-07-05T07:35:56.789Z)
Latitude
-0.00008°
Longitude
-85.24583°
Altitude
583.856 km
Speed
7.569 km/s
True Right ascension
20h 49m 11s
True Declination
0° 00' 00"
Sunlit
Object was in full shadow at epoch
Visualization orbit readout
Latitude
-82.18718°
Longitude
-1.44104°
Altitude
617.999 km
Speed
7.544 km/s
Apparent Right ascension
19h 04m 11s
Apparent Declination
-67° 45' 53"
Sunlit
Object is in daylight
Visualization observer readout
Local Sidereal Time
06:22:01
Azimuth
188.356° SSW
Elevation
-61.557°
Doppler factor
1
Orbital elements
Apogee altitude
586.684 km
Perigee altitude
569.334 km
Semi-major axis
6,956.146 km
Eccentricity
0.00125
Inclination
97.8028°
RAAN
312.2972°
Arg. of periapsis
88.9843°
True anomaly
Unknown
Mean anomaly
271.2806°
Eccentric anomaly
Unknown
Mean motion
3.74102 °/min
Orbital period
96.23 mins
BSTAR
0.00017897
Loading maneuver chart data...
Loading SW <> Apogee altitude chart data...
Loading historical data...
Loading historical data...
Loading historical data...
Loading historical data...
Loading historical data...
Loading historical data...
Loading historical data...

METHANESAT Visibility forecast

Observer location: undefined°, undefined°

Span
Click to sort rows by Start time (UTC) header in descending order
Start Az.
Max El. time (UTC)
Max El. Az.
Max El.
End time (UTC)
End Az.
7 mins2025-07-05 21:00:29.840Z22.706° NE2025-07-05 21:04:29.840Z118.065° SE38.657°2025-07-05 21:07:29.840Z175.976° S
5 mins2025-07-06 07:50:29.840Z118.981° SE2025-07-06 07:52:29.840Z71.227° E28.151°2025-07-06 07:55:29.840Z12.228° NNE
4 mins2025-07-06 09:26:29.840Z240.698° WSW2025-07-06 09:27:29.840Z258.512° W17.124°2025-07-06 09:30:29.840Z308.14° NW
|